Starlink 5786

operational
NORAD ID: 56032 Int'l Des: 2023-042 Owner: SPXS Country: US Constellation: starlink
LEOCIRCULAR

Starlink 5786について

説明を読み込み中...

リアルタイム位置

3D地球を読み込み中...

次回通過

高度履歴

Altitude vs Time

uPlot chart will show altitude changes over time

軌道要素

1 56032U 23042AY 25259.05194556 -.00000334 00000-0 -96473-5 0 9991
2 56032 43.0029 271.7437 0001322 270.4423 89.6268 15.02537472136798
Epoch: Sep 16, 2025 • Age: 10 hours

現在のステータス

高度 560.1 km
速度 7.59 km/s
衛星直下点 29.10°N, 144.98°E
打ち上げ日 Mar 24, 2023
運用期間 2.4 years
タイプ internet

技術仕様

分類 Payload
質量 305.00 kg
乾燥質量 290.00 kg
総質量 305.00 kg
長さ 0.20 m
直径 2.80 m
スパン 9.00 m
形状 Box + pan
製造者 SPXS
バスタイプ Starlink
フェーズステータス In Orbit
所有者/国 SPXS/US

大規模コンステレーション

Loading constellations...